Alexandria, Egypt

12:44 PM EET on December 09, 2016 (GMT +0200)
Alexandria International

Weather History for HEAX - January, 2013

Change the Weather History Date:

Monday, January 7, 2013

  Actual Average Record
Temperature  
Mean Temperature 58 °F -  
Max Temperature 64 °F 63 °F 77 °F (1997)
Min Temperature 51 °F 47 °F 42 °F (2008)
Degree Days  
Heating Degree Days 8    
Growing Degree Days 8 (Base 50)    
Moisture  
Dew Point 47 °F    
Average Humidity 67    
Maximum Humidity 94    
Minimum Humidity 38    
Precipitation  
Precipitation 0.20 in 0.06 in - ()
Sea Level Pressure  
Sea Level Pressure 29.84 in    
Wind  
Wind Speed 18 mph ()    
Max Wind Speed 29 mph    
Max Gust Speed -    
Visibility 6.0 miles    
Events Rain    
Averages and records for this station are not official NWS values.
T = Trace of Precipitation, MM = Missing Value Source: Averaged Metar Reports

Daily Weather History Graph

Daily Weather History Graph

Search for Another Location

Airport or City:

Trip Planner

Search our weather history database for the weather conditions in past years. The results will help you decide how hot, cold, wet, or windy it might be!

Date:

Astronomy

Jan. 07, 2013 Rise Set
Actual Time 6:59 AM EET 5:13 PM EET
Civil Twilight 6:33 AM EET 5:39 PM EET
Nautical Twilight 6:03 AM EET 6:09 PM EET
Astronomical Twilight 5:33 AM EET 6:39 PM EET
Moon 2:06 AM EET (1/7) 1:04 PM EET (1/7)
Length of Visible Light 11h 06m
Length of Day
10h 13m
Waning Crescent, 26% of the Moon is Illuminated
Jan 7
Waning Crescent
Jan 11
New
Jan 19
First Quarter
Jan 27
Full
Feb 3
Last Quarter

Hourly Weather History & Observations

Time (EET) Temp. Dew Point Humidity Pressure Visibility Wind Dir Wind Speed Gust Speed Precip Events Conditions
12:00 AM 57.2 °F 46.4 °F 67% 29.65 in 6.2 mi WSW 28.8 mph - N/A   Scattered Clouds
1:00 AM 55.4 °F 51.8 °F 88% 29.65 in 3.7 mi West 23.0 mph - N/A Rain Rain Showers
2:00 AM 52 °F 50 °F 91% 29.67 in 6 mi West 20.7 mph - - Rain Light Rain Showers
2:00 AM 51.8 °F 50.0 °F 94% 29.65 in 6.2 mi West 20.7 mph - N/A   Scattered Clouds
3:00 AM 51.8 °F 50.0 °F 94% 29.65 in 6.2 mi West 18.4 mph - N/A   Scattered Clouds
4:00 AM 53.6 °F 50.0 °F 88% 29.65 in 6.2 mi WNW 17.3 mph - N/A   Scattered Clouds
5:00 AM 57.2 °F 44.6 °F 63% 29.71 in 6.2 mi NW 25.3 mph - N/A   Scattered Clouds
6:00 AM 57.2 °F 51.8 °F 82% 29.74 in 6.2 mi NW 25.3 mph - N/A   Scattered Clouds
7:00 AM 55.4 °F 46.4 °F 72% 29.80 in 6.2 mi WNW 25.3 mph - N/A   Scattered Clouds
8:00 AM 55.4 °F 46.4 °F 72% 29.86 in 6.2 mi NW 20.7 mph - N/A   Scattered Clouds
9:00 AM 59.0 °F 44.6 °F 59% 29.89 in 6.2 mi NW 18.4 mph - N/A   Scattered Clouds
10:00 AM 60.8 °F 41.0 °F 48% 29.89 in 6.2 mi WNW 18.4 mph - N/A   Scattered Clouds
11:00 AM 60.8 °F 41.0 °F 48% 29.92 in 6.2 mi WNW 17.3 mph - N/A   Scattered Clouds
12:00 PM 62.6 °F 42.8 °F 48% 29.92 in 6.2 mi WNW 16.1 mph - N/A   Scattered Clouds
1:00 PM 62.6 °F 46.4 °F 55% 29.92 in 6.2 mi WNW 11.5 mph - N/A   Scattered Clouds
2:00 PM 64 °F 45 °F 38% 29.92 in 6 mi West 16.1 mph - -   Mostly Cloudy
2:00 PM 64.4 °F 44.6 °F 49% 29.92 in 6.2 mi West 16.1 mph - N/A   Scattered Clouds
3:00 PM 60.8 °F 46.4 °F 59% 29.92 in 6.2 mi West 11.5 mph - N/A   Scattered Clouds
4:00 PM 60.8 °F 44.6 °F 55% 29.92 in 6.2 mi West 15.0 mph - N/A   Scattered Clouds
5:00 PM 59.0 °F 44.6 °F 59% 29.95 in 6.2 mi West 11.5 mph - N/A   Scattered Clouds
6:00 PM 57.2 °F 44.6 °F 63% 29.92 in 3.7 mi West 17.3 mph - N/A Rain Rain Showers
7:00 PM 55.4 °F 46.4 °F 72% 29.92 in 6.2 mi SW 9.2 mph - N/A   Mostly Cloudy
8:00 PM 57 °F 46 °F 56% 29.96 in 6 mi West 15.0 mph - -   Partly Cloudy
8:00 PM 57.2 °F 46.4 °F 67% 29.95 in 6.2 mi West 15.0 mph - N/A   Mostly Cloudy
9:00 PM 55.4 °F 46.4 °F 72% 29.95 in 6.2 mi West 12.7 mph - N/A   Mostly Cloudy
10:00 PM 53.6 °F 48.2 °F 82% 29.95 in 6.2 mi West 13.8 mph - N/A   Mostly Cloudy
11:00 PM 57.2 °F 50.0 °F 77% 29.95 in 6.2 mi West 18.4 mph - N/A   Mostly Cloudy